Location: Peebles
(55.6412°N, 3.1714°W)
Time: 05:24:47
(UTC+01:00)

deb NNS O-4 - Pass Details

Date: 26 June 2022
Orbit: 977 x 1074 km, 89.9° (Epoch: 16 August)

Event Time Altitude Azimuth Distance (km) Brightness Sun altitude
Exits shadow 02:37:23 - 164° (SSE) 3,455 ? -9.1°
Reaches altitude 10° 02:38:53 10° 162° (SSE) 2,906 ? -9.0°
Maximum altitude 02:45:28 66° 83° (E) 1,167 ? -8.7°
Drops below altitude 10° 02:52:05 10° 3° (N) 2,907 ? -8.4°
Sets 02:54:38 0° 1° (N) 3,856 ? -8.2°
